STARLINK-37272, 68726

Orbit data source: Space-Track

STARLINK-37272, 68726 is a payload satellite owned by SpaceX/Seattle (US) in LEO that was launched on Tue, 14 Apr 2026 UTC via an FALCON 9 launch vehicle from the Air Force Eastern Test Range (AFETR). Payload-class satellites include a variety of spacecraft equipped with specific instruments for various scientific and technological missions. These include communications satellites like Starlink; space stations such as the ISS; scientific satellites like the Hubble; Earth observation satellites from companies like Planet Labs, Umbra, and HawkEye 360; GPS; miniature CubeSats for education and research; and military/defense satellites.

Loading next visibility...
Identifier
68726, 2026-081AD
Orbit
LEO
Country
Flag of USUS
Related business
Manufacturer
SpaceX/Seattle
Mission
Operational spacecraft
Bus & Motor
STARLINK V2MO, Unknown motor
Mass
575 kg wet, ~530 kg dry
Launch date (UTC)
2026-04-14 (2 months ago)
Launch vehicle
FALCON 9
Launch site
Air Force Eastern Test Range (AFETR)
Object type
Payload
Rocket body
Debris
Shape & HBR
Unknown shape, 14.5 m
Radar Cross Section
Large (>1 m²)

Expand to show TLE details & history
Last TLE update: 1 day ago

TLE from 1 day ago
0 STARLINK-37272
1 68726U 26081AD  26170.69141904  .00022395  00000-0  67171-3 0  9992
2 68726  53.1605 279.3101 0001099  85.0043 275.1085 15.34411912 10373
Epoch: 2026-06-19T16:35Z
TLE epoch observation values (Epoch: 2026-06-19T16:35:38.605Z)
Latitude
-0°
Longitude
122.48248°
Altitude
463.502 km
Speed
7.636 km/s
True Right ascension
18h 37m 14s
True Declination
0° 00' 00"
Sunlit
Object was in full shadow at epoch
Visualization orbit readout
Latitude
Unknown
Longitude
Unknown
Altitude
Unknown
Speed
Unknown
Apparent Right ascension
Unknown
Apparent Declination
Unknown
Sunlit
N/A
Visualization observer readout
Local Sidereal Time
07:18:28
Azimuth
Unknown
Elevation
Unknown
Doppler factor
Unknown
Orbital elements
Apogee altitude
463.676 km
Perigee altitude
462.173 km
Semi-major axis
6,841.062 km
Eccentricity
0.00011
Inclination
53.1605°
RAAN
279.3101°
Arg. of periapsis
85.0043°
True anomaly
275.09596°
Mean anomaly
275.1085°
Eccentric anomaly
275.10223°
Mean motion
3.83582 °/min
Orbital period
93.85 mins
BSTAR
0.00067171
Loading maneuver chart data...
Computing Atmospheric mass density...
Loading historical data...
Loading historical data...
Loading historical data...
Loading historical data...
Loading historical data...
Loading historical data...
Loading historical data...

Documentation

Showing up to 5 results
|